Weather History for Salida, CO

Change the Weather History Date:

Friday, September 20, 2013

  Actual Average (KGUC) Record (KGUC)
Temperature  
Mean Temperature 60 °F -  
Max Temperature 76 °F 65 °F 78 °F (2014)
Min Temperature 44 °F 31 °F 26 °F (2002)
Degree Days  
Heating Degree Days 5    
Growing Degree Days 10 (Base 50)    
Moisture  
Dew Point 40 °F    
Average Humidity 56    
Maximum Humidity 84    
Minimum Humidity 14    
Precipitation  
Precipitation 0.00 in - - ()
Sea Level Pressure  
Sea Level Pressure 30.32 in    
Wind  
Wind Speed 3 mph (South)    
Max Wind Speed 15 mph    
Max Gust Speed 28 mph    
Visibility 10 miles    
Events      
Averages and records for this station are not official NWS values.
T = Trace of Precipitation, MM = Missing Value Source: NWS Daily Summary

Daily Weather History Graph

Daily Weather History Graph

Search for Another Location

Airport:

Trip Planner

Search our weather history database for the weather conditions in past years. The results will help you decide how hot, cold, wet, or windy it might be!

Date:

Astronomy

Sep. 20, 2013 Rise Set
Actual Time 6:50 AM MDT 7:03 PM MDT
Civil Twilight 6:23 AM MDT 7:30 PM MDT
Nautical Twilight 5:52 AM MDT 8:01 PM MDT
Astronomical Twilight 5:21 AM MDT 8:32 PM MDT
Moon 7:41 PM MDT (9/20) 8:06 AM MDT (9/20)
Length of Visible Light 13h 06m
Length of Day
12h 13m
Full, 98% of the Moon is Illuminated
Sep 20
Full
Sep 26
Last Quarter
Oct 4
New
Oct 11
First Quarter
Oct 18
Full

Hourly Weather History & Observations

Time (MDT) Temp. Windchill Dew Point Humidity Pressure Visibility Wind Dir Wind Speed Gust Speed Precip Events Conditions
12:15 AM 50.2 °F - 41.4 °F 72% 30.36 in 10.0 mi Calm Calm - N/A   Clear
12:35 AM 49.3 °F - 40.3 °F 71% 30.36 in 10.0 mi Calm Calm - N/A   Scattered Clouds
12:55 AM 48.0 °F - 41.0 °F 77% 30.36 in 10.0 mi Calm Calm - N/A   Scattered Clouds
1:15 AM 47.3 °F - 41.0 °F 79% 30.37 in 10.0 mi Calm Calm - N/A   Mostly Cloudy
1:35 AM 48.9 °F - 43.7 °F 82% 30.37 in 10.0 mi Calm Calm - N/A   Scattered Clouds
1:55 AM 48.6 °F - 43.9 °F 84% 30.37 in 10.0 mi Calm Calm - N/A   Scattered Clouds
2:15 AM 48.6 °F - 43.0 °F 81% 30.37 in 10.0 mi Calm Calm - N/A   Overcast
2:35 AM 49.6 °F - 44.1 °F 81% 30.37 in 10.0 mi Calm Calm - N/A   Mostly Cloudy
2:55 AM 49.8 °F - 44.6 °F 82% 30.37 in 10.0 mi Calm Calm - N/A   Mostly Cloudy
3:15 AM 51.8 °F - 45.5 °F 79% 30.37 in 10.0 mi Calm Calm - N/A   Overcast
3:35 AM 50.5 °F - 45.5 °F 83% 30.37 in 10.0 mi Calm Calm - N/A   Overcast
3:55 AM 50.0 °F - 45.1 °F 83% 30.37 in 10.0 mi Calm Calm - N/A   Overcast
4:15 AM 49.1 °F - 42.8 °F 79% 30.37 in 10.0 mi SW 4.6 mph - N/A   Overcast
4:35 AM 49.1 °F - 42.4 °F 78% 30.37 in 10.0 mi WSW 3.5 mph - N/A   Overcast
4:55 AM 49.3 °F - 42.6 °F 78% 30.37 in 10.0 mi WSW 3.5 mph - N/A   Overcast
5:15 AM 49.1 °F - 41.4 °F 75% 30.37 in 10.0 mi NW 4.6 mph - N/A   Mostly Cloudy
5:35 AM 48.7 °F - 41.0 °F 75% 30.37 in 10.0 mi WNW 4.6 mph - N/A   Scattered Clouds
5:55 AM 47.7 °F - 41.7 °F 80% 30.37 in 10.0 mi West 3.5 mph - N/A   Scattered Clouds
6:15 AM 46.0 °F 42.5 °F 39.4 °F 78% 30.37 in 10.0 mi WSW 6.9 mph - N/A   Scattered Clouds
6:35 AM 45.0 °F 41.8 °F 38.7 °F 79% 30.38 in 10.0 mi WSW 5.8 mph - N/A   Scattered Clouds
6:55 AM 44.6 °F 40.7 °F 38.5 °F 79% 30.38 in 10.0 mi WSW 6.9 mph - N/A   Mostly Cloudy
7:15 AM 45.7 °F 42.0 °F 39.7 °F 80% 30.38 in 10.0 mi WSW 6.9 mph - N/A   Overcast
7:35 AM 45.1 °F 40.8 °F 39.2 °F 80% 30.39 in 10.0 mi West 8.1 mph - N/A   Scattered Clouds
7:55 AM 45.5 °F 41.8 °F 40.3 °F 82% 30.39 in 10.0 mi WSW 6.9 mph - N/A   Clear
8:15 AM 49.8 °F - 41.4 °F 73% 30.39 in 10.0 mi WNW 4.6 mph - N/A   Mostly Cloudy
8:35 AM 50.9 °F - 39.0 °F 64% 30.38 in 10.0 mi WNW 4.6 mph - N/A   Scattered Clouds
8:55 AM 52.0 °F - 39.2 °F 62% 30.38 in 10.0 mi Calm Calm - N/A   Clear
9:15 AM 52.7 °F - 38.7 °F 59% 30.37 in 10.0 mi Calm Calm - N/A   Clear
9:35 AM 54.5 °F - 39.9 °F 58% 30.37 in 10.0 mi Calm Calm - N/A   Clear
9:55 AM 55.8 °F - 40.3 °F 56% 30.37 in 10.0 mi Calm Calm - N/A   Clear
10:15 AM 56.5 °F - 41.0 °F 56% 30.37 in 10.0 mi Calm Calm - N/A   Clear
10:35 AM 57.7 °F - 41.2 °F 54% 30.36 in 10.0 mi Calm Calm - N/A   Clear
10:55 AM 60.1 °F - 41.4 °F 50% 30.35 in 10.0 mi Calm Calm - N/A   Clear
11:15 AM 60.8 °F - 41.0 °F 48% 30.35 in 10.0 mi East 3.5 mph - N/A   Clear
11:35 AM 61.9 °F - 41.9 °F 48% 30.34 in 10.0 mi SE 4.6 mph - N/A   Clear
11:55 AM 64.0 °F - 40.5 °F 42% 30.33 in 10.0 mi Calm Calm - N/A   Clear
12:15 PM 65.7 °F - 41.0 °F 41% 30.32 in 10.0 mi SE 5.8 mph - N/A   Clear
12:35 PM 66.6 °F - 41.2 °F 40% 30.31 in 10.0 mi Calm Calm - N/A   Clear
12:55 PM 69.1 °F - 41.2 °F 36% 30.30 in 10.0 mi ENE 5.8 mph - N/A   Clear
1:15 PM 70.5 °F - 39.7 °F 33% 30.30 in 10.0 mi Calm Calm - N/A   Clear
1:35 PM 70.3 °F - 37.9 °F 31% 30.29 in 10.0 mi Calm Calm - N/A   Clear
1:55 PM 72.5 °F - 37.4 °F 28% 30.28 in 10.0 mi ESE 5.8 mph - N/A   Clear
2:15 PM 73.6 °F - 34.9 °F 24% 30.27 in 10.0 mi Calm Calm - N/A   Clear
2:35 PM 75.4 °F - 29.7 °F 19% 30.26 in 10.0 mi SW 8.1 mph 17.3 mph N/A   Clear
2:55 PM 75.6 °F - 26.2 °F 16% 30.25 in 10.0 mi SSW 9.2 mph - N/A   Clear
3:15 PM 75.9 °F - 23.7 °F 14% 30.25 in 10.0 mi SSE 8.1 mph 16.1 mph N/A   Clear
3:35 PM 76.1 °F - 25.7 °F 15% 30.25 in 10.0 mi SSE 10.4 mph - N/A   Clear
3:55 PM 76.5 °F - 25.2 °F 15% 30.24 in 10.0 mi South 9.2 mph 19.6 mph N/A   Clear
4:15 PM 76.5 °F - 24.6 °F 15% 30.24 in 10.0 mi South 8.1 mph - N/A   Clear
4:35 PM 75.4 °F - 22.6 °F 14% 30.23 in 10.0 mi South 6.9 mph - N/A   Clear
4:55 PM 75.7 °F - 24.6 °F 15% 30.23 in 10.0 mi SSW 8.1 mph - N/A   Clear
5:15 PM 75.2 °F - 27.7 °F 17% 30.23 in 10.0 mi SW 6.9 mph - N/A   Clear
5:35 PM 74.7 °F - 29.3 °F 19% 30.23 in 10.0 mi SSW 8.1 mph - N/A   Clear
5:55 PM 74.1 °F - 31.8 °F 21% 30.23 in 10.0 mi SSW 6.9 mph - N/A   Clear
6:15 PM 72.7 °F - 32.7 °F 23% 30.23 in 10.0 mi South 5.8 mph - N/A   Clear
6:35 PM 70.0 °F - 35.6 °F 28% 30.23 in 10.0 mi South 6.9 mph - N/A   Clear
6:55 PM 65.8 °F - 46.9 °F 50% 30.24 in 10.0 mi SE 8.1 mph - N/A   Clear
7:15 PM 64.4 °F - 47.5 °F 54% 30.25 in 10.0 mi SE 11.5 mph 17.3 mph N/A   Clear
7:35 PM 63.5 °F - 47.3 °F 56% 30.25 in 10.0 mi SSE 9.2 mph - N/A   Clear
7:55 PM 61.9 °F - 47.5 °F 59% 30.27 in 10.0 mi SE 10.4 mph 18.4 mph N/A   Clear
8:15 PM 61.2 °F - 47.7 °F 61% 30.27 in 10.0 mi SE 12.7 mph 20.7 mph N/A   Clear
8:35 PM 60.4 °F - 47.8 °F 63% 30.29 in 10.0 mi SE 11.5 mph 20.7 mph N/A   Clear
8:55 PM 60.3 °F - 48.0 °F 64% 30.29 in 10.0 mi ESE 15.0 mph 27.6 mph N/A   Clear
9:15 PM 59.4 °F - 48.4 °F 67% 30.30 in 10.0 mi South 5.8 mph - N/A   Clear
9:35 PM 59.0 °F - 48.2 °F 67% 30.30 in 10.0 mi South 6.9 mph - N/A   Clear
9:55 PM 58.3 °F - 48.2 °F 69% 30.30 in 10.0 mi South 6.9 mph - N/A   Clear
10:15 PM 57.9 °F - 48.2 °F 70% 30.31 in 10.0 mi SSE 6.9 mph - N/A   Clear
10:35 PM 56.3 °F - 46.2 °F 69% 30.31 in 10.0 mi South 5.8 mph - N/A   Clear
10:55 PM 55.8 °F - 45.0 °F 67% 30.31 in 10.0 mi SSE 8.1 mph - N/A   Clear
11:15 PM 56.3 °F - 46.6 °F 70% 30.31 in 10.0 mi SSE 6.9 mph - N/A   Clear
11:35 PM 55.6 °F - 45.9 °F 70% 30.32 in 10.0 mi SSE 5.8 mph - N/A   Scattered Clouds
11:55 PM 55.4 °F - 46.8 °F 73% 30.32 in 10.0 mi South 6.9 mph - N/A   Scattered Clouds